Wind_Speed
18 18 18 17 15 13 12 11 11 11 12 12 13 14 15 16 16 20 25 18 15 18 13 21 17 16 18 16 12 10 8 12 16 12 9 7 9 7 2 7 9 11 3 13 26
18 18 19 18 17 15 13 12 11 10 10 10 11 12 13 13 15 25 27 17 17 16 19 26 25 22 21 19 12 15 13 15 7 4 7 9 6 2 2 8 10 8 13 24 27
18 18 18 19 18 16 14 13 12 11 10 9 9 10 10 8 9 12 10 20 25 21 21 21 21 24 22 18 20 14 18 10 5 11 5 7 6 1 3 8 12 17 22 27 26
19 18 18 18 18 17 15 13 12 11 10 8 8 8 8 6 5 5 4 10 17 24 22 25 23 27 20 15 24 12 15 15 12 9 10 11 1 4 6 3 5 13 21 24 29
19 19 18 18 18 18 15 14 13 12 10 8 7 8 7 8 14 10 8 5 14 27 28 29 29 26 18 18 14 18 15 13 20 13 14 11 12 9 10 7 5 16 23 24 24
20 20 19 19 19 18 16 14 13 12 10 9 8 8 7 13 11 15 15 8 13 26 27 27 24 24 14 12 18 8 20 22 13 18 22 17 16 9 6 7 13 22 25 24 23
20 20 20 20 19 18 17 14 12 11 10 9 9 9 11 18 4 6 8 12 17 24 24 22 15 21 9 10 17 18 11 12 21 18 11 17 16 16 11 10 17 23 24 24 23
21 21 20 20 20 18 17 14 11 11 9 8 9 8 10 9 10 8 12 13 17 17 18 19 13 21 10 4 4 12 16 13 17 19 18 15 18 18 9 15 18 24 24 25 23
20 21 21 22 20 19 17 14 10 10 9 7 7 7 7 11 17 19 14 16 18 14 17 15 11 16 13 11 8 10 10 15 7 18 12 17 17 15 13 16 19 23 25 25 22
21 20 20 21 21 19 18 13 8 9 9 5 8 6 14 10 12 19 19 16 21 19 15 18 14 11 12 13 12 13 12 12 11 13 14 18 16 15 15 17 19 22 24 23 22
22 21 21 20 21 21 17 6 2 4 13 13 6 7 12 9 13 19 23 23 19 20 15 19 16 18 20 15 10 10 15 13 9 12 18 20 13 14 15 15 20 22 23 21 19
22 21 21 20 22 22 18 8 9 3 9 18 21 21 5 8 9 19 26 19 24 20 17 12 20 18 14 14 13 10 12 12 8 7 10 15 14 10 9 12 16 19 19 19 15
23 22 22 20 21 19 8 10 7 5 8 11 20 22 20 16 11 27 29 16 21 20 20 15 15 14 16 13 14 14 13 12 8 9 8 14 13 12 10 10 11 15 16 15 15
23 22 21 19 12 7 15 5 5 9 5 12 11 12 18 16 14 27 29 19 15 20 19 18 9 19 17 17 16 16 17 9 8 13 13 19 12 17 15 14 14 18 19 17 16
24 22 21 19 15 15 6 4 8 8 5 12 10 6 18 25 19 28 29 19 17 17 15 14 16 12 19 17 16 12 4 13 11 14 5 16 14 21 19 16 18 22 22 20 18
23 23 22 18 17 11 8 6 10 7 8 9 10 13 18 25 24 29 29 23 16 14 18 10 6 15 15 16 15 9 8 9 9 8 11 13 17 14 17 21 20 22 23 21 20
27 25 22 23 11 6 13 11 7 9 4 10 11 19 22 18 15 23 23 21 15 16 14 16 14 13 6 11 14 16 15 9 10 8 2 9 8 7 8 19 18 21 22 22 21
31 28 19 20 17 13 17 10 11 8 7 3 9 20 20 20 17 23 25 20 21 17 13 15 16 14 13 14 13 21 18 9 14 11 7 6 7 6 5 2 10 9 22 20 20
30 15 8 7 15 20 21 15 10 7 12 5 10 19 15 14 10 18 18 22 20 17 8 13 5 10 8 7 15 13 11 5 3 4 3 8 3 8 7 7 7 8 11 19 20
22 5 4 4 15 20 12 11 14 4 5 8 11 6 17 18 14 16 17 20 22 20 16 6 8 5 7 9 3 11 11 7 7 8 12 8 7 6 10 9 5 5 8 13 17
4 2 9 11 18 16 10 14 11 6 2 4 4 6 2 11 14 18 18 7 18 22 17 7 3 9 6 9 13 6 9 7 5 4 6 8 9 6 8 5 4 3 3 7 13
4 4 8 12 9 10 8 12 1 11 2 5 5 6 4 4 4 3 9 4 8 11 17 12 8 9 11 4 4 4 10 16 10 12 9 8 4 4 6 6 6 6 3 3 8
5 10 3 2 4 7 5 10 2 7 4 3 3 3 2 4 5 6 6 4 8 7 8 8 5 11 7 6 3 7 6 7 4 5 8 10 7 6 8 9 10 9 7 1 4
5 4 8 6 9 1 7 6 7 5 3 2 4 4 6 6 2 0 4 3 6 7 4 2 2 6 7 1 6 7 9 9 11 12 14 12 9 9 7 8 9 11 11 6 3
8 4 2 5 12 10 8 3 9 6 4 4 4 4 5 5 9 13 13 6 3 6 1 4 14 10 5 7 9 9 8 9 12 13 11 7 4 8 6 6 9 10 10 11 10
6 5 5 5 10 11 10 11 10 7 5 3 6 5 4 7 6 8 8 10 6 8 9 3 5 9 9 6 13 7 1 2 0 1 2 3 9 4 4 3 5 8 9 11 11
10 9 5 11 8 9 12 11 9 3 11 7 7 10 10 7 8 9 8 7 3 9 8 7 5 7 11 7 6 10 5 2 2 6 8 7 9 2 4 4 5 4 8 10 10
Wind_Direction
349 347 342 336 326 312 298 297 290 284 280 274 266 259 252 252 252 251 246 238 234 224 202 190 181 185 184 196 202 211 239 240 230 229 222 157 191 165 197 217 191 189 160 145 158
348 347 344 340 333 321 303 297 295 283 276 270 265 258 254 254 259 256 252 241 234 217 197 184 186 183 192 202 206 211 228 240 265 221 235 166 216 202 274 184 176 139 128 144 152
346 346 343 341 337 328 312 295 295 286 275 267 259 252 250 258 285 264 245 227 219 210 197 190 192 188 205 208 207 217 240 236 250 250 253 187 211 311 297 227 204 182 157 156 157
341 342 341 340 338 331 319 295 290 286 276 261 247 242 238 211 243 188 124 213 207 192 189 189 191 197 212 204 215 245 226 249 239 213 230 229 288 251 265 241 194 189 170 165 162
337 337 338 337 337 334 321 304 285 285 276 261 240 226 215 226 244 252 232 287 195 181 190 189 193 199 209 212 216 222 246 229 236 249 234 241 250 270 258 241 178 172 172 169 165
333 333 334 335 334 334 323 308 281 281 275 257 238 220 208 243 245 255 254 239 193 180 186 191 199 197 225 221 213 207 235 242 240 231 238 242 243 237 202 207 176 172 171 169 167
330 329 330 330 332 332 328 311 283 271 274 258 241 221 241 236 265 220 204 182 181 179 185 191 202 187 205 216 230 237 246 220 231 227 223 221 236 224 236 184 173 175 170 166 165
330 327 327 327 328 330 328 318 287 259 260 254 242 223 250 253 200 186 169 168 165 181 186 184 194 202 221 180 185 219 232 243 200 211 218 212 206 204 188 177 174 170 165 164 164
327 326 325 323 325 326 327 322 289 250 243 240 230 213 261 241 211 197 165 166 164 163 179 190 187 203 197 207 191 200 223 216 158 192 188 205 212 145 180 180 168 168 162 162 161
321 321 320 319 321 323 325 321 293 252 230 206 215 237 230 226 189 187 191 179 166 157 159 188 196 202 218 203 206 192 222 198 215 181 202 196 219 153 178 181 172 166 162 165 165
313 313 313 314 315 315 318 310 269 229 210 207 212 218 134 143 146 171 169 163 173 178 184 193 202 206 196 204 242 209 210 194 163 171 193 194 190 172 174 184 172 168 167 170 169
311 308 305 305 308 310 301 222 252 274 268 235 227 225 209 170 141 164 163 164 177 189 192 177 218 198 204 198 231 231 208 195 113 196 228 189 176 164 187 192 179 176 178 175 176
312 309 306 301 304 305 278 280 240 233 250 209 215 224 214 207 173 169 178 182 185 196 194 206 205 201 201 205 214 220 219 198 207 165 232 187 173 190 190 192 198 192 189 188 187
317 313 307 304 312 282 303 296 227 181 258 179 199 225 190 192 204 182 183 182 187 195 195 216 173 199 204 219 210 220 215 237 195 193 204 204 201 192 181 197 198 198 197 195 192
318 313 307 301 279 280 266 264 176 171 253 126 142 168 183 189 147 179 185 195 186 188 191 197 212 204 204 209 213 234 190 214 211 214 166 193 241 188 178 204 202 203 199 198 195
315 309 305 295 276 259 231 167 160 219 233 164 146 169 170 198 179 164 188 204 205 186 209 204 204 202 210 212 210 220 193 198 197 210 218 168 217 157 189 208 204 198 199 197 195
315 307 292 281 250 238 173 168 203 234 114 167 175 166 176 183 155 166 182 199 194 196 195 218 205 200 197 197 199 199 185 170 197 200 237 138 214 46 172 197 204 196 195 198 197
318 309 288 261 248 218 177 197 224 193 215 68 164 171 185 177 177 185 185 194 210 211 191 194 197 208 202 209 181 200 198 198 205 202 148 149 228 110 76 79 200 204 198 199 199
322 318 275 241 206 176 186 197 204 211 205 179 167 171 185 184 170 185 193 202 197 206 222 189 182 122 187 192 191 168 214 326 307 33 274 151 111 140 143 142 168 192 205 203 206
324 41 129 170 166 165 206 209 205 278 176 198 178 232 177 178 194 193 189 198 197 200 233 189 149 189 140 158 115 205 166 192 217 217 236 162 177 118 159 162 135 161 192 205 206
60 138 351 154 145 185 200 195 202 183 100 184 122 157 150 165 210 199 182 155 196 197 216 207 270 144 190 219 173 166 190 231 298 306 260 218 195 87 91 84 76 80 151 196 201
54 99 110 126 177 205 194 180 243 171 159 99 59 89 137 153 146 114 174 118 188 183 199 214 239 193 187 71 318 320 242 202 226 191 229 294 101 93 88 70 59 56 89 175 195
43 80 115 212 165 181 118 180 253 177 162 165 101 76 107 134 133 119 110 85 141 156 159 168 207 208 175 176 167 231 213 262 264 276 227 244 207 124 97 74 56 49 29 94 185
346 84 93 98 33 60 166 152 168 52 79 98 107 132 143 142 90 207 148 74 65 88 95 129 156 268 239 285 341 192 219 222 232 248 249 226 138 149 94 70 51 45 40 56 111
14 69 72 35 32 61 69 176 161 133 92 50 157 208 177 158 159 174 185 146 119 116 69 239 241 244 253 336 313 284 229 216 225 250 262 261 214 103 70 53 47 48 56 62 65
40 15 351 20 38 48 32 40 73 90 9 40 125 116 114 92 13 149 165 168 172 155 167 174 217 224 212 229 307 262 191 224 105 211 190 254 119 77 84 76 54 55 53 55 55
46 55 356 30 7 36 24 23 43 114 57 56 120 114 83 45 52 72 77 80 99 185 170 150 143 190 188 141 178 210 69 12 59 50 336 264 76 110 123 42 18 66 51 41 25
Height
1512 1509 1506 1504 1502 1500 1498 1497 1496 1494 1493 1492 1492 1492 1493 1494 1494 1494 1492 1496 1498 1500 1502 1506 1509 1513 1516 1516 1517 1517 1509 1498 1494 1495 1492 1498 1498 1505 1508 1508 1511 1513 1515 1518 1521
1511 1508 1505 1502 1499 1497 1495 1494 1492 1491 1490 1489 1489 1489 1490 1491 1491 1487 1486 1491 1493 1496 1499 1501 1506 1511 1513 1512 1514 1511 1502 1493 1488 1492 1492 1497 1499 1503 1505 1505 1509 1514 1516 1518 1522
1509 1506 1503 1500 1497 1494 1492 1491 1489 1488 1487 1487 1486 1487 1488 1489 1490 1481 1479 1482 1486 1492 1498 1502 1505 1508 1507 1507 1508 1504 1497 1493 1500 1500 1500 1497 1501 1503 1503 1501 1504 1511 1516 1517 1523
1508 1504 1501 1498 1495 1492 1489 1487 1486 1485 1485 1484 1484 1485 1486 1488 1482 1478 1477 1478 1481 1488 1496 1499 1502 1503 1502 1502 1502 1502 1499 1500 1501 1502 1502 1500 1502 1502 1502 1500 1503 1509 1516 1519 1520
1504 1502 1499 1495 1492 1489 1486 1484 1483 1482 1482 1482 1482 1483 1484 1486 1480 1476 1475 1477 1478 1484 1490 1493 1497 1499 1497 1497 1499 1500 1497 1501 1503 1502 1501 1501 1502 1501 1500 1502 1505 1509 1514 1519 1524
1502 1498 1495 1492 1489 1486 1483 1481 1480 1480 1480 1480 1480 1481 1483 1482 1473 1473 1473 1475 1476 1482 1489 1492 1493 1497 1496 1495 1496 1493 1498 1497 1497 1497 1499 1499 1498 1500 1496 1500 1503 1507 1511 1517 1523
1498 1495 1492 1489 1486 1483 1481 1478 1477 1477 1478 1478 1478 1479 1480 1473 1471 1471 1472 1474 1477 1482 1486 1490 1493 1496 1493 1494 1494 1494 1495 1491 1493 1493 1493 1497 1496 1492 1494 1499 1501 1505 1510 1516 1522
1495 1492 1488 1485 1483 1480 1478 1475 1474 1474 1475 1476 1477 1478 1474 1468 1470 1470 1472 1474 1479 1484 1487 1491 1492 1493 1493 1491 1492 1492 1492 1488 1478 1486 1489 1493 1489 1485 1492 1496 1500 1503 1509 1515 1522
1491 1488 1485 1482 1479 1477 1474 1472 1471 1471 1472 1473 1476 1477 1469 1463 1464 1468 1471 1474 1478 1483 1487 1490 1492 1490 1491 1488 1490 1490 1489 1484 1479 1477 1482 1487 1475 1481 1491 1494 1498 1504 1508 1514 1520
1486 1483 1480 1477 1475 1473 1471 1469 1468 1468 1469 1471 1473 1478 1463 1459 1460 1464 1469 1475 1478 1482 1487 1489 1488 1487 1484 1480 1489 1486 1490 1482 1476 1477 1480 1482 1471 1480 1489 1491 1496 1502 1506 1513 1518
1480 1477 1474 1472 1469 1467 1468 1468 1471 1470 1465 1458 1456 1455 1454 1457 1458 1463 1466 1473 1478 1480 1475 1481 1481 1477 1473 1474 1469 1469 1475 1471 1465 1472 1474 1474 1472 1478 1487 1489 1493 1499 1505 1512 1518
1474 1471 1469 1467 1464 1462 1461 1463 1460 1459 1454 1449 1453 1454 1455 1455 1457 1461 1465 1468 1471 1470 1470 1478 1475 1467 1469 1473 1475 1473 1470 1470 1474 1474 1471 1470 1474 1480 1487 1487 1492 1498 1504 1510 1516
1468 1465 1462 1460 1458 1457 1455 1455 1454 1456 1453 1442 1444 1447 1450 1454 1450 1457 1462 1460 1463 1465 1464 1466 1463 1464 1469 1472 1475 1471 1469 1465 1468 1474 1473 1474 1483 1488 1489 1491 1494 1499 1505 1509 1513
1462 1460 1457 1455 1457 1452 1451 1450 1450 1454 1445 1430 1437 1437 1444 1447 1448 1453 1456 1458 1458 1457 1461 1460 1458 1460 1465 1467 1468 1470 1461 1462 1468 1474 1477 1468 1482 1481 1484 1492 1497 1500 1504 1508 1512
1457 1454 1452 1451 1450 1449 1451 1448 1449 1454 1443 1417 1428 1431 1433 1438 1439 1448 1452 1453 1452 1451 1456 1455 1454 1459 1462 1462 1462 1463 1456 1461 1463 1466 1466 1473 1474 1459 1472 1485 1487 1493 1499 1504 1509
1450 1448 1446 1445 1442 1443 1446 1448 1452 1447 1440 1417 1421 1426 1430 1431 1434 1441 1450 1452 1448 1449 1454 1444 1451 1453 1453 1454 1456 1457 1462 1462 1461 1460 1477 1458 1467 1467 1468 1470 1474 1485 1492 1499 1505
1442 1439 1438 1437 1439 1438 1441 1448 1442 1432 1414 1415 1416 1418 1420 1425 1429 1437 1443 1446 1446 1454 1454 1451 1449 1449 1454 1456 1454 1460 1459 1473 1479 1474 1467 1461 1470 1458 1455 1462 1468 1476 1487 1495 1501
1432 1428 1425 1426 1428 1435 1440 1441 1434 1417 1411 1408 1407 1414 1418 1419 1424 1430 1437 1441 1439 1440 1440 1450 1459 1444 1447 1447 1452 1455 1452 1452 1482 1471 1459 1468 1474 1458 1462 1467 1468 1474 1482 1491 1498
1421 1419 1418 1419 1422 1429 1437 1429 1420 1412 1407 1412 1410 1415 1416 1415 1418 1425 1429 1433 1434 1435 1439 1444 1442 1441 1443 1442 1442 1451 1459 1448 1459 1459 1463 1458 1465 1464 1468 1472 1477 1481 1483 1489 1496
1415 1414 1420 1418 1420 1429 1428 1416 1413 1412 1409 1411 1412 1411 1415 1416 1419 1421 1425 1425 1430 1434 1432 1434 1447 1441 1448 1446 1448 1443 1443 1463 1458 1474 1482 1465 1469 1460 1469 1470 1474 1480 1484 1488 1494
1414 1415 1417 1418 1425 1430 1415 1412 1412 1414 1412 1413 1415 1416 1412 1412 1413 1416 1419 1422 1423 1429 1433 1434 1440 1449 1448 1444 1443 1452 1451 1451 1452 1456 1463 1469 1465 1467 1469 1476 1478 1480 1485 1488 1493
1415 1411 1425 1425 1426 1419 1408 1408 1415 1412 1414 1416 1418 1418 1417 1420 1419 1418 1419 1421 1429 1433 1438 1436 1441 1449 1444 1447 1447 1441 1442 1446 1459 1468 1459 1464 1471 1474 1477 1481 1484 1484 1488 1489 1493
1421 1421 1426 1426 1414 1412 1414 1414 1414 1414 1415 1417 1420 1421 1422 1424 1433 1428 1430 1435 1433 1430 1437 1440 1445 1448 1455 1453 1451 1449 1449 1448 1451 1456 1459 1466 1464 1476 1478 1483 1487 1489 1492 1492 1493
1423 1420 1427 1425 1421 1414 1413 1414 1415 1419 1419 1419 1421 1423 1424 1427 1428 1438 1436 1435 1435 1437 1441 1441 1445 1446 1446 1448 1447 1451 1451 1450 1453 1459 1454 1457 1466 1475 1480 1483 1489 1491 1493 1493 1495
1428 1434 1435 1427 1425 1422 1419 1419 1415 1419 1422 1423 1423 1421 1423 1429 1429 1433 1434 1440 1439 1442 1440 1442 1448 1446 1447 1455 1455 1450 1449 1453 1455 1452 1458 1449 1459 1474 1486 1489 1493 1495 1496 1498 1499
1437 1439 1434 1432 1433 1425 1426 1428 1423 1426 1425 1427 1425 1425 1425 1431 1432 1431 1428 1431 1435 1442 1441 1443 1449 1449 1456 1460 1467 1458 1458 1454 1457 1461 1462 1463 1478 1487 1493 1493 1495 1497 1499 1500 1502
1444 1443 1442 1439 1437 1431 1438 1435 1431 1428 1433 1432 1428 1428 1433 1438 1437 1438 1437 1438 1437 1438 1438 1442 1449 1451 1456 1458 1462 1470 1469 1470 1472 1473 1476 1469 1485 1490 1491 1494 1496 1497 1500 1502 1503